Forside
METAR-TAF:

METAR-TAF

Lufthavne :

Ankeny Regional Airport

Ankeny, Iowa, USA

Breddekreds: 41-41-24N, længdekreds: 093-33-57W, højde: 275 m

Aktuelle vejr

Denne rapport blev lavet for 22 minutter siden, kl. 15:55 UTC
Vind 3 kt fra sydsydvest
Temperatur 24°C
Fugtighed 61%
Tryk 1021 hPa
Sigt: 16.1 km
skyfri

METAR: KIKV 031555Z AUTO 20003KT 10SM CLR 24/16 A3016 RMK AO2

Tid: 11:17 (16:17 UTC)


TAF: fraværende

Vejrobservationer og prognoser fra mere end 4000 lufthavne (METAR og TAF).

De gule og røde prikker repræsenterer de meteorologiske stationer.

Flyt musen over at se navnet på stationen.

Så klik over at se vejr observationer og prognoser.

At skifte det kort: Klik på de grønne knapper med et sort kors for at zoome ind; på den grønne knap med en bindestreg for at zoome ud; eller på de grønne pile for tilstødende kort.


METAR-TAF: